This is the latest recevied weather packets stored in our database for station/object KD9JB-1. If no packets are shown the sender has not sent any weather packets the latest 10 day(s).
| Time | Temp. | Humidity | Pressure | Rain* | Wind** | Luminosity | Snow |
|---|---|---|---|---|---|---|---|
| 1777977696 | 15.56° C | 81% | 1007.9 hPa | 0 mm | - | - | - |
| 1777977396 | 16.11° C | 80% | 1008 hPa | 0 mm | - | - | - |
| 1777977096 | 16.11° C | 80% | 1008 hPa | 0 mm | - | - | - |
| 1777976796 | 16.11° C | 77% | 1008.2 hPa | 0 mm | - | - | - |
| 1777976496 | 16.67° C | 76% | 1008.3 hPa | 0 mm | - | - | - |
| 1777976196 | 16.67° C | 74% | 1008.4 hPa | 0 mm | - | - | - |
| 1777975896 | 17.22° C | 72% | 1008.4 hPa | 0 mm | - | - | - |
| 1777975596 | 18.33° C | 67% | 1008.5 hPa | 0 mm | - | - | - |
| 1777975296 | 17.78° C | 63% | 1008.3 hPa | 0 mm | - | - | - |
| 1777974996 | 17.78° C | 66% | 1008.4 hPa | 0 mm | - | - | - |
| 1777974696 | 17.78° C | 66% | 1008.4 hPa | 0 mm | - | - | - |
| 1777974396 | 18.33° C | 65% | 1008.4 hPa | 0 mm | - | - | - |
| 1777974096 | 18.33° C | 63% | 1008.1 hPa | 0 mm | - | - | - |
| 1777973796 | 18.33° C | 64% | 1008.1 hPa | 0 mm | - | - | - |
| 1777973496 | 18.33° C | 63% | 1007.9 hPa | 0 mm | - | - | - |
| 1777973196 | 18.33° C | 65% | 1007.9 hPa | 0 mm | - | - | - |
| 1777972896 | 18.33° C | 63% | 1007.9 hPa | 0 mm | - | - | - |
| 1777972596 | 18.33° C | 62% | 1007.9 hPa | 0 mm | - | - | - |
| 1777972296 | 18.33° C | 63% | 1007.9 hPa | 0 mm | - | - | - |
| 1777971996 | 18.33° C | 61% | 1007.9 hPa | 0 mm | - | - | - |
| 1777971696 | 18.33° C | 61% | 1008 hPa | 0 mm | - | - | - |
| 1777971396 | 18.89° C | 61% | 1008.1 hPa | 0 mm | - | - | - |
| 1777971096 | 18.89° C | 60% | 1008 hPa | 0 mm | - | - | - |
| 1777970796 | 18.89° C | 59% | 1007.7 hPa | 0 mm | - | - | - |
| 1777970496 | 18.89° C | 60% | 1007.2 hPa | 0 mm | - | - | - |
* Rain latest hour (hover to see other rain measurements)
** Current wind speed in m/s (hover to see current wind gust speed)